Location: Gleizolles
(44.4833°N, 6.7667°E)
Time: 08:22:24
(UTC+00:00)

PCSat - Pass Details

Date: 11 December 2022
Orbit: 785 x 793 km, 67.0° (Epoch: 27 January)

Event Time Altitude Azimuth Distance (km) Brightness Sun altitude
Rises 17:39:26 0° 226° (SW) 3,268 13.8 -18.2°
Reaches altitude 10° 17:41:54 10° 231° (SW) 2,345 13.0 -18.6°
Maximum altitude 17:47:07 50° 307° (NW) 997 10.3 -19.5°
Enters shadow 17:51:05 17° 18° (NNE) 1,896 11.2 -20.2°
